DELTA 1 DEB, 10478

Orbit data source: Space-Track

DELTA 1 DEB, 10478 is space debris in LEO originally from a launch on Thu, 14 Jul 1977 UTC launched from the Air Force Eastern Test Range (AFETR). Debris objects in space refer to the collection of defunct objects orbiting the Earth. Examples of debris include non-operational satellites, rocket bodies, and fragments generated from explosions, collisions, or faulty payload assembly.

Loading next visibility...
Identifier
10478, 1977-065EL
Orbit
LEO
Country
Flag of USUS
Related business
Manufacturer
Unknown
Mission
Spacecraft
Bus & Motor
Unknown
Mass
Unknown
Launch date (UTC)
1977-07-14 (49 years ago)
Launch vehicle
Unknown
Launch site
Air Force Eastern Test Range (AFETR)
Object type
Payload
Rocket body
Debris
Shape & HBR
Unknown shape, 0.1 m
Radar Cross Section
Medium (>0.1 m² and <1 m²)

Expand to show TLE details & history
Last TLE update: 2 days ago

TLE from 2 days ago
0 DELTA 1 DEB
1 10478U 77065EL  26171.42862954  .00005217  00000-0  62652-3 0  9991
2 10478  29.2515 216.0861 0425520 184.1359 175.5639 14.34120335438118
Epoch: 2026-06-20T10:17Z
TLE epoch observation values (Epoch: 2026-06-20T10:17:13.592Z)
Latitude
0.00001°
Longitude
153.1361°
Altitude
1,079.968 km
Speed
7.158 km/s
True Right ascension
14h 24m 20s
True Declination
0° 00' 00"
Sunlit
Object was in full shadow at epoch
Visualization orbit readout
Latitude
Unknown
Longitude
Unknown
Altitude
Unknown
Speed
Unknown
Apparent Right ascension
Unknown
Apparent Declination
Unknown
Sunlit
N/A
Visualization observer readout
Local Sidereal Time
04:00:20
Azimuth
Unknown
Elevation
Unknown
Doppler factor
Unknown
Orbital elements
Apogee altitude
1,086.634 km
Perigee altitude
477.282 km
Semi-major axis
7,160.095 km
Eccentricity
0.04255
Inclination
29.2515°
RAAN
216.0861°
Arg. of periapsis
184.1359°
True anomaly
175.92202°
Mean anomaly
175.5639°
Eccentric anomaly
175.7448°
Mean motion
3.58232 °/min
Orbital period
100.49 mins
BSTAR
0.00062652
Loading maneuver chart data...
Computing Atmospheric mass density...

Documentation

Showing up to 5 results
|